Weather History for Elizabeth City, NC

Change the Weather History Date:

Monday, April 1, 2013

  Actual Average Record
Temperature  
Mean Temperature 61 °F 55 °F  
Max Temperature 71 °F 66 °F 84 °F (1953)
Min Temperature 51 °F 44 °F 31 °F (1955)
Degree Days  
Heating Degree Days 4 11  
Month to date heating degree days 4 11  
Since 1 July heating degree days 2604 2948  
Cooling Degree Days 0 1  
Month to date cooling degree days 0 1  
Year to date cooling degree days 5 8  
Growing Degree Days 13 (Base 50)    
Moisture  
Dew Point 48 °F    
Average Humidity 66    
Maximum Humidity 100    
Minimum Humidity 31    
Precipitation  
Precipitation 0.01 in 0.12 in 1.32 in (1973)
Month to date precipitation 0.01 0.12  
Year to date precipitation 6.82 10.54  
Snow  
Snow 0.00 in - 0.00 in (2002)
Month to date snowfall 0.0  
Since 1 July snowfall T  
Snow Depth 0.00 in    
Sea Level Pressure  
Sea Level Pressure 29.83 in    
Wind  
Wind Speed 10 mph (WSW)    
Max Wind Speed 23 mph    
Max Gust Speed 28 mph    
Visibility 10 miles    
Events Rain    
T = Trace of Precipitation, MM = Missing Value Source: NWS Daily Summary

Daily Weather History Graph

Daily Weather History Graph

Search for Another Location

Airport:

Trip Planner

Search our weather history database for the weather conditions in past years. The results will help you decide how hot, cold, wet, or windy it might be!

Date:

Astronomy

Apr. 01, 2013 Rise Set
Actual Time 6:50 AM EDT 7:26 PM EDT
Civil Twilight 6:24 AM EDT 7:52 PM EDT
Nautical Twilight 5:54 AM EDT 8:23 PM EDT
Astronomical Twilight 5:22 AM EDT 8:54 PM EDT
Moon 12:25 AM EDT (4/1) 10:42 AM EDT (4/1)
Length of Visible Light 13h 28m
Length of Day
12h 36m
Waning Gibbous, 67% of the Moon is Illuminated
Apr 1
Waning Gibbous
Apr 3
Last Quarter
Apr 10
New
Apr 18
First Quarter
Apr 25
Full

Hourly Weather History & Observations

Time (EDT) Temp. Dew Point Humidity Pressure Visibility Wind Dir Wind Speed Gust Speed Precip Events Conditions
12:54 AM 57.9 °F 55.9 °F 93% 29.86 in 10.0 mi SW 8.1 mph - 0.03 in Rain Light Rain
1:54 AM 57.9 °F 55.9 °F 93% 29.84 in 10.0 mi SSW 9.2 mph - 0.01 in   Overcast
2:54 AM 55.9 °F 55.0 °F 97% 29.83 in 10.0 mi South 10.4 mph - N/A   Overcast
3:54 AM 55.9 °F 54.0 °F 93% 29.81 in 10.0 mi SSW 10.4 mph - N/A   Mostly Cloudy
4:54 AM 55.0 °F 52.0 °F 89% 29.80 in 10.0 mi SSW 10.4 mph - N/A   Clear
5:54 AM 55.0 °F 52.0 °F 89% 29.81 in 10.0 mi SSW 9.2 mph - N/A   Mostly Cloudy
6:54 AM 55.9 °F 54.0 °F 93% 29.83 in 10.0 mi SW 8.1 mph - N/A   Overcast
7:40 AM 57.2 °F 55.4 °F 94% 29.85 in 10.0 mi West 5.8 mph - N/A   Overcast
7:54 AM 57.0 °F 55.0 °F 93% 29.85 in 9.0 mi West 6.9 mph - N/A   Overcast
8:54 AM 57.0 °F 55.0 °F 93% 29.85 in 10.0 mi West 9.2 mph - 0.00 in   Overcast
9:54 AM 57.9 °F 53.1 °F 84% 29.84 in 10.0 mi WNW 8.1 mph - N/A   Overcast
10:54 AM 60.1 °F 48.9 °F 67% 29.85 in 10.0 mi WNW 5.8 mph - N/A   Overcast
11:54 AM 61.0 °F 50.0 °F 67% 29.86 in 10.0 mi SW 6.9 mph - N/A   Overcast
12:54 PM 64.0 °F 48.0 °F 56% 29.83 in 10.0 mi SW 8.1 mph - N/A   Scattered Clouds
1:54 PM 66.9 °F 44.1 °F 44% 29.81 in 10.0 mi West 8.1 mph - N/A   Clear
2:54 PM 69.1 °F 42.1 °F 38% 29.78 in 10.0 mi WSW 12.7 mph - N/A   Clear
3:54 PM 69.1 °F 46.0 °F 44% 29.78 in 10.0 mi SSW 11.5 mph - N/A   Clear
4:54 PM 71.1 °F 39.9 °F 32% 29.78 in 10.0 mi West 12.7 mph 17.3 mph N/A   Clear
5:17 PM 69.8 °F 44.6 °F 40% 29.78 in 10.0 mi Variable 6.9 mph - N/A   Clear
5:54 PM 71.1 °F 39.9 °F 32% 29.78 in 10.0 mi WSW 15.0 mph 20.7 mph N/A   Clear
6:54 PM 66.9 °F 42.1 °F 40% 29.79 in 10.0 mi West 8.1 mph - N/A   Clear
7:54 PM 60.1 °F 44.1 °F 55% 29.81 in 10.0 mi SW 5.8 mph - N/A   Scattered Clouds
8:54 PM 64.0 °F 42.1 °F 45% 29.85 in 10.0 mi WNW 11.5 mph - N/A   Mostly Cloudy
9:54 PM 61.0 °F 41.0 °F 48% 29.87 in 10.0 mi NW 10.4 mph - N/A   Mostly Cloudy
10:54 PM 55.9 °F 41.0 °F 57% 29.91 in 10.0 mi NNE 20.7 mph 27.6 mph N/A   Scattered Clouds
11:54 PM 53.1 °F 39.0 °F 59% 29.94 in 10.0 mi North 13.8 mph 20.7 mph N/A   Mostly Cloudy